Back to Top

Language: 

My Weather Underground Personal Weather Station Historical Data with Graphs...

Delerius Weather Station Historical Data
Daily Summary for July 22, 2017 Units:  English    Metric   Both
« Previous Day
Next Day »
Daily Weekly Monthly Yearly Custom
  High: Low: Average:
Temperature: 69.1 °F 54.7 °F 60.3 °F
Dew Point: 57.2 °F 49.3 °F 54.3 °F
Humidity: 96 % 50 % 82 %
Wind Speed: 12.0 mph 0.0 mph 4.4 mph
Wind Gust: 23.0 mph - -
Wind:- - SSE
Pressure: 29.78 in 29.66 in -
Precipitation: 0.38 in    
Historical Graphs
 
 
Tabular Data for July 22, 2017
Time Temperature Dew Point Pressure Wind Wind Speed Wind Gust Humidity Rainfall Rate (Hourly) solar Conditions
00:01 61.0 °F 56.4 °F 29.68 in SSE 5.0 mph 13.0 mph 85 % 0.01 in 0 W/m2
00:06 60.8 °F 56.6 °F 29.68 in South 4.0 mph 10.0 mph 86 % 0.01 in 0 W/m2
00:12 60.4 °F 56.6 °F 29.68 in SSE 5.0 mph 10.0 mph 87 % 0.01 in 0 W/m2
00:17 60.4 °F 56.6 °F 29.68 in South 6.0 mph 11.0 mph 87 % 0.01 in 0 W/m2
00:22 60.3 °F 56.7 °F 29.68 in South 7.0 mph 14.0 mph 88 % 0.01 in 0 W/m2
00:27 60.1 °F 56.8 °F 29.68 in SSE 7.0 mph 14.0 mph 89 % 0.01 in 0 W/m2
00:32 59.9 °F 57.0 °F 29.68 in SSE 7.0 mph 14.0 mph 90 % 0.01 in 0 W/m2
00:37 59.7 °F 56.8 °F 29.68 in SSE 8.0 mph 19.0 mph 90 % 0.02 in 0 W/m2
00:42 59.5 °F 56.6 °F 29.68 in SSE 9.0 mph 19.0 mph 90 % 0.02 in 0 W/m2
00:47 59.4 °F 56.7 °F 29.68 in SSE 10.0 mph 19.0 mph 91 % 0.01 in 0 W/m2
00:52 59.4 °F 56.7 °F 29.68 in SE 9.0 mph 16.0 mph 91 % 0.01 in 0 W/m2
00:57 59.2 °F 56.6 °F 29.68 in SE 8.0 mph 15.0 mph 91 % 0.01 in 0 W/m2
01:02 59.2 °F 56.9 °F 29.68 in SE 7.0 mph 15.0 mph 92 % 0.01 in 0 W/m2
01:07 59.0 °F 56.7 °F 29.67 in SE 7.0 mph 13.0 mph 92 % 0.01 in 0 W/m2
01:12 58.8 °F 56.5 °F 29.67 in SE 8.0 mph 13.0 mph 92 % 0.01 in 0 W/m2
01:17 58.8 °F 56.5 °F 29.67 in SE 8.0 mph 14.0 mph 92 % 0.01 in 0 W/m2
01:22 58.6 °F 56.3 °F 29.67 in SE 8.0 mph 14.0 mph 92 % 0.01 in 0 W/m2
01:27 58.6 °F 56.3 °F 29.67 in SE 7.0 mph 12.0 mph 92 % 0.01 in 0 W/m2
01:32 58.6 °F 56.3 °F 29.68 in SE 8.0 mph 16.0 mph 92 % 0.02 in 0 W/m2
01:37 58.6 °F 56.3 °F 29.68 in SE 8.0 mph 16.0 mph 92 % 0.01 in 0 W/m2
01:42 58.5 °F 56.1 °F 29.68 in SE 8.0 mph 13.0 mph 92 % 0.01 in 0 W/m2
01:47 58.5 °F 56.1 °F 29.68 in SE 7.0 mph 12.0 mph 92 % 0.01 in 0 W/m2
01:52 58.5 °F 56.1 °F 29.68 in SE 7.0 mph 11.0 mph 92 % 0.01 in 0 W/m2
01:57 58.5 °F 56.4 °F 29.67 in SE 6.0 mph 11.0 mph 93 % 0.01 in 0 W/m2
02:02 58.5 °F 56.4 °F 29.67 in ESE 6.0 mph 11.0 mph 93 % 0.01 in 0 W/m2
02:07 58.5 °F 56.4 °F 29.68 in ESE 5.0 mph 11.0 mph 93 % 0.01 in 0 W/m2
02:12 58.5 °F 56.4 °F 29.67 in ESE 5.0 mph 10.0 mph 93 % 0.02 in 0 W/m2
02:17 58.5 °F 56.4 °F 29.67 in SE 6.0 mph 9.0 mph 93 % 0.02 in 0 W/m2
02:22 58.5 °F 56.4 °F 29.68 in SE 5.0 mph 9.0 mph 93 % 0.02 in 0 W/m2
02:27 58.5 °F 56.4 °F 29.68 in ESE 4.0 mph 8.0 mph 93 % 0.02 in 0 W/m2
02:32 58.5 °F 56.4 °F 29.68 in ESE 5.0 mph 8.0 mph 93 % 0.01 in 0 W/m2
02:37 58.5 °F 56.7 °F 29.68 in ESE 5.0 mph 8.0 mph 94 % 0.01 in 0 W/m2
02:42 58.5 °F 56.7 °F 29.68 in ESE 5.0 mph 10.0 mph 94 % 0.01 in 0 W/m2
02:47 58.3 °F 56.6 °F 29.68 in ESE 5.0 mph 10.0 mph 94 % 0.01 in 0 W/m2
02:52 58.1 °F 56.4 °F 29.68 in ESE 6.0 mph 10.0 mph 94 % 0.01 in 0 W/m2
02:57 57.9 °F 56.2 °F 29.68 in ESE 5.0 mph 10.0 mph 94 % 0.01 in 0 W/m2
03:02 57.9 °F 55.9 °F 29.68 in ESE 5.0 mph 10.0 mph 93 % 0.01 in 0 W/m2
03:07 57.7 °F 56.0 °F 29.68 in ESE 4.0 mph 10.0 mph 94 % 0.01 in 0 W/m2
03:12 57.6 °F 55.8 °F 29.68 in ESE 4.0 mph 8.0 mph 94 % 0.00 in 0 W/m2
03:18 57.6 °F 55.6 °F 29.68 in ESE 5.0 mph 9.0 mph 93 % 0.00 in 0 W/m2
03:23 57.4 °F 55.4 °F 29.68 in ESE 5.0 mph 11.0 mph 93 % 0.00 in 0 W/m2
03:28 57.4 °F 55.4 °F 29.68 in ESE 6.0 mph 11.0 mph 93 % 0.00 in 0 W/m2
03:33 57.4 °F 55.4 °F 29.68 in ESE 5.0 mph 10.0 mph 93 % 0.00 in 0 W/m2
03:38 57.4 °F 55.4 °F 29.68 in ESE 5.0 mph 10.0 mph 93 % 0.00 in 0 W/m2
03:43 57.4 °F 55.4 °F 29.67 in ESE 5.0 mph 10.0 mph 93 % 0.00 in 0 W/m2
03:48 57.2 °F 55.2 °F 29.67 in ESE 5.0 mph 10.0 mph 93 % 0.00 in 0 W/m2
03:53 57.2 °F 55.2 °F 29.67 in ESE 5.0 mph 10.0 mph 93 % 0.00 in 0 W/m2
03:58 57.2 °F 55.5 °F 29.68 in ESE 4.0 mph 8.0 mph 94 % 0.00 in 0 W/m2
04:03 57.2 °F 55.5 °F 29.68 in ESE 5.0 mph 9.0 mph 94 % 0.00 in 0 W/m2
04:08 57.2 °F 55.5 °F 29.68 in ESE 5.0 mph 9.0 mph 94 % 0.00 in 0 W/m2
04:13 57.2 °F 55.5 °F 29.68 in SE 4.0 mph 8.0 mph 94 % 0.00 in 0 W/m2
04:18 57.4 °F 55.7 °F 29.67 in SE 5.0 mph 10.0 mph 94 % 0.00 in 0 W/m2
04:23 57.4 °F 55.7 °F 29.67 in ESE 5.0 mph 10.0 mph 94 % 0.00 in 0 W/m2
04:28 57.4 °F 55.7 °F 29.67 in ESE 5.0 mph 9.0 mph 94 % 0.00 in 0 W/m2
04:33 57.4 °F 55.7 °F 29.67 in ESE 5.0 mph 9.0 mph 94 % 0.00 in 0 W/m2
04:38 57.6 °F 55.8 °F 29.67 in ESE 5.0 mph 9.0 mph 94 % 0.00 in 0 W/m2
04:43 57.6 °F 55.8 °F 29.67 in ESE 5.0 mph 9.0 mph 94 % 0.00 in 0 W/m2
04:48 57.6 °F 56.1 °F 29.67 in ESE 5.0 mph 12.0 mph 95 % 0.00 in 0 W/m2
04:49 57.6 °F 56.1 °F 29.67 in ESE 5.0 mph 12.0 mph 95 % 0.00 in 0 W/m2
04:54 57.6 °F 56.1 °F 29.67 in ESE 5.0 mph 12.0 mph 95 % 0.00 in 0 W/m2
04:59 57.6 °F 56.1 °F 29.67 in ESE 5.0 mph 9.0 mph 95 % 0.00 in 0 W/m2
05:04 57.7 °F 56.3 °F 29.67 in ESE 5.0 mph 8.0 mph 95 % 0.00 in 0 W/m2
05:09 57.7 °F 56.3 °F 29.67 in ESE 5.0 mph 9.0 mph 95 % 0.00 in 0 W/m2
05:14 57.7 °F 56.3 °F 29.67 in ESE 5.0 mph 10.0 mph 95 % 0.01 in 0 W/m2
05:19 57.7 °F 56.3 °F 29.68 in ESE 5.0 mph 10.0 mph 95 % 0.02 in 0 W/m2
05:24 57.7 °F 56.3 °F 29.68 in ESE 5.0 mph 9.0 mph 95 % 0.02 in 0 W/m2
05:29 57.6 °F 56.1 °F 29.68 in ESE 6.0 mph 9.0 mph 95 % 0.02 in 0 W/m2
05:34 57.6 °F 56.1 °F 29.68 in ESE 5.0 mph 9.0 mph 95 % 0.03 in 0 W/m2
05:39 57.6 °F 56.1 °F 29.68 in ESE 6.0 mph 10.0 mph 95 % 0.05 in 0 W/m2
05:44 57.6 °F 56.1 °F 29.68 in ESE 6.0 mph 10.0 mph 95 % 0.06 in 0 W/m2
05:49 57.6 °F 56.1 °F 29.68 in ESE 5.0 mph 9.0 mph 95 % 0.07 in 5 W/m2
05:54 57.4 °F 56.0 °F 29.68 in ESE 5.0 mph 9.0 mph 95 % 0.07 in 7 W/m2
05:59 57.4 °F 56.2 °F 29.67 in ESE 4.0 mph 9.0 mph 96 % 0.08 in 11 W/m2
06:04 57.4 °F 56.2 °F 29.68 in ESE 5.0 mph 10.0 mph 96 % 0.09 in 11 W/m2
06:09 57.4 °F 56.2 °F 29.68 in ESE 6.0 mph 12.0 mph 96 % 0.09 in 9 W/m2
06:14 57.2 °F 56.1 °F 29.68 in ESE 6.0 mph 12.0 mph 96 % 0.08 in 14 W/m2
06:19 57.0 °F 55.6 °F 29.67 in ESE 5.0 mph 10.0 mph 95 % 0.07 in 16 W/m2
06:24 56.8 °F 55.7 °F 29.67 in ESE 4.0 mph 10.0 mph 96 % 0.06 in 16 W/m2
06:29 56.7 °F 55.5 °F 29.67 in ESE 3.0 mph 10.0 mph 96 % 0.06 in 19 W/m2
06:34 56.7 °F 55.5 °F 29.67 in ESE 2.0 mph 7.0 mph 96 % 0.06 in 30 W/m2
06:39 56.7 °F 55.5 °F 29.68 in ESE 2.0 mph 7.0 mph 96 % 0.05 in 19 W/m2
06:44 56.7 °F 55.5 °F 29.68 in ESE 2.0 mph 6.0 mph 96 % 0.03 in 30 W/m2
06:49 56.5 °F 55.4 °F 29.68 in ESE 3.0 mph 8.0 mph 96 % 0.03 in 30 W/m2
06:54 56.3 °F 55.2 °F 29.68 in ESE 4.0 mph 8.0 mph 96 % 0.03 in 33 W/m2
06:59 56.3 °F 55.2 °F 29.68 in ESE 2.0 mph 7.0 mph 96 % 0.02 in 54 W/m2
07:04 56.3 °F 55.2 °F 29.68 in ESE 2.0 mph 5.0 mph 96 % 0.02 in 46 W/m2
07:09 56.3 °F 55.2 °F 29.68 in ESE 1.0 mph 6.0 mph 96 % 0.02 in 44 W/m2
07:14 56.3 °F 55.2 °F 29.68 in ESE 2.0 mph 6.0 mph 96 % 0.02 in 44 W/m2
07:19 56.5 °F 55.4 °F 29.68 in ESE 1.0 mph 5.0 mph 96 % 0.02 in 33 W/m2
07:24 56.5 °F 55.4 °F 29.68 in ESE 1.0 mph 5.0 mph 96 % 0.02 in 28 W/m2
07:29 56.5 °F 55.4 °F 29.68 in SE 1.0 mph 5.0 mph 96 % 0.02 in 28 W/m2
07:34 56.5 °F 55.4 °F 29.68 in South 1.0 mph 6.0 mph 96 % 0.02 in 54 W/m2
07:39 56.5 °F 55.4 °F 29.68 in SSW 1.0 mph 6.0 mph 96 % 0.02 in 51 W/m2
07:44 56.5 °F 55.4 °F 29.68 in Calm   3.0 mph 96 % 0.02 in 51 W/m2
07:49 56.7 °F 55.5 °F 29.68 in Calm   3.0 mph 96 % 0.02 in 47 W/m2
07:55 56.7 °F 55.5 °F 29.68 in Calm     96 % 0.02 in 44 W/m2
08:00 56.7 °F 55.5 °F 29.68 in Calm     96 % 0.02 in 39 W/m2
08:01 56.7 °F 55.5 °F 29.68 in Calm     96 % 0.02 in 40 W/m2
08:06 56.7 °F 55.5 °F 29.68 in Calm     96 % 0.02 in 58 W/m2
08:11 56.7 °F 55.5 °F 29.68 in Calm     96 % 0.02 in 130 W/m2
08:16 56.7 °F 55.5 °F 29.68 in Calm     96 % 0.02 in 114 W/m2
08:21 56.7 °F 55.5 °F 29.68 in Calm     96 % 0.02 in 163 W/m2
08:26 56.8 °F 55.7 °F 29.67 in Calm   2.0 mph 96 % 0.02 in 192 W/m2
08:31 56.8 °F 55.7 °F 29.66 in NNW 3.0 mph 9.0 mph 96 % 0.01 in 257 W/m2
08:36 57.0 °F 55.9 °F 29.68 in NNW 4.0 mph 9.0 mph 96 % 0.01 in 178 W/m2
08:41 57.2 °F 56.1 °F 29.69 in WSW 3.0 mph 7.0 mph 96 % 0.01 in 76 W/m2
08:46 57.2 °F 56.1 °F 29.69 in SSW 4.0 mph 7.0 mph 96 % 0.01 in 32 W/m2
08:51 57.0 °F 55.9 °F 29.69 in SSW 3.0 mph 6.0 mph 96 % 0.01 in 35 W/m2
08:57 57.0 °F 55.9 °F 29.69 in SSW 2.0 mph 6.0 mph 96 % 0.01 in 56 W/m2
09:01 57.0 °F 55.9 °F 29.69 in Calm   4.0 mph 96 % 0.00 in 98 W/m2
09:06 57.0 °F 55.6 °F 29.69 in Calm   1.0 mph 95 % 0.00 in 127 W/m2
09:12 57.2 °F 55.8 °F 29.69 in Calm   2.0 mph 95 % 0.00 in 83 W/m2
09:17 57.2 °F 55.8 °F 29.69 in SSW 1.0 mph 4.0 mph 95 % 0.00 in 116 W/m2
09:22 57.4 °F 56.0 °F 29.69 in SSW 1.0 mph 4.0 mph 95 % 0.00 in 93 W/m2
09:27 57.2 °F 55.8 °F 29.69 in SSW 1.0 mph 4.0 mph 95 % 0.00 in 76 W/m2
09:32 57.2 °F 55.8 °F 29.69 in SSW 2.0 mph 4.0 mph 95 % 0.00 in 95 W/m2
09:37 57.0 °F 55.6 °F 29.69 in SSW 1.0 mph 4.0 mph 95 % 0.00 in 104 W/m2
09:42 57.0 °F 55.6 °F 29.69 in Calm   6.0 mph 95 % 0.00 in 104 W/m2
09:47 57.2 °F 55.8 °F 29.69 in SSW 1.0 mph 7.0 mph 95 % 0.00 in 120 W/m2
09:52 57.4 °F 56.0 °F 29.70 in South 2.0 mph 7.0 mph 95 % 0.00 in 107 W/m2
09:57 57.4 °F 56.0 °F 29.70 in SSE 4.0 mph 8.0 mph 95 % 0.00 in 142 W/m2
09:59 57.4 °F 56.0 °F 29.70 in SSE 4.0 mph 8.0 mph 95 % 0.00 in 158 W/m2
10:05 57.4 °F 55.7 °F 29.70 in South 5.0 mph 11.0 mph 94 % 0.00 in 223 W/m2
10:10 57.6 °F 55.8 °F 29.70 in South 6.0 mph 11.0 mph 94 % 0.00 in 330 W/m2
10:15 57.9 °F 56.5 °F 29.70 in South 5.0 mph 11.0 mph 95 % 0.00 in 406 W/m2
10:20 58.5 °F 56.7 °F 29.70 in SSW 4.0 mph 8.0 mph 94 % 0.00 in 424 W/m2
10:30 59.2 °F 57.2 °F 29.69 in SSW 5.0 mph 10.0 mph 93 % 0.00 in 538 W/m2
10:35 59.5 °F 56.9 °F 29.69 in SSW 5.0 mph 11.0 mph 91 % 0.00 in 520 W/m2
10:40 60.1 °F 57.1 °F 29.69 in SSW 5.0 mph 11.0 mph 90 % 0.00 in 642 W/m2
10:45 60.4 °F 56.9 °F 29.69 in SSW 5.0 mph 9.0 mph 88 % 0.00 in 366 W/m2
10:50 60.8 °F 56.6 °F 29.70 in SSW 5.0 mph 9.0 mph 86 % 0.00 in 926 W/m2
10:55 61.3 °F 56.8 °F 29.69 in SSW 5.0 mph 7.0 mph 85 % 0.00 in 926 W/m2
11:00 61.9 °F 56.3 °F 29.69 in SSW 5.0 mph 9.0 mph 82 % 0.00 in 413 W/m2
11:05 62.1 °F 55.8 °F 29.69 in SSW 6.0 mph 10.0 mph 80 % 0.00 in 364 W/m2
11:10 61.9 °F 55.3 °F 29.69 in SSW 6.0 mph 11.0 mph 79 % 0.00 in 315 W/m2
11:15 61.9 °F 54.9 °F 29.69 in SSW 6.0 mph 11.0 mph 78 % 0.00 in 295 W/m2
11:20 61.9 °F 54.6 °F 29.70 in SSW 6.0 mph 10.0 mph 77 % 0.00 in 348 W/m2
11:25 62.2 °F 54.9 °F 29.70 in SW 6.0 mph 8.0 mph 77 % 0.00 in 422 W/m2
11:30 62.4 °F 54.8 °F 29.70 in SW 6.0 mph 9.0 mph 76 % 0.00 in 490 W/m2
11:35 62.6 °F 54.2 °F 29.70 in SSW 7.0 mph 10.0 mph 74 % 0.00 in 422 W/m2
11:40 63.0 °F 54.9 °F 29.70 in SSW 6.0 mph 10.0 mph 75 % 0.00 in 420 W/m2
11:45 63.1 °F 55.1 °F 29.70 in SSW 5.0 mph 10.0 mph 75 % 0.00 in 454 W/m2
11:50 63.1 °F 54.3 °F 29.70 in South 6.0 mph 12.0 mph 73 % 0.00 in 504 W/m2
11:55 63.1 °F 54.0 °F 29.70 in South 7.0 mph 12.0 mph 72 % 0.00 in 628 W/m2
12:00 63.7 °F 55.2 °F 29.70 in SSW 5.0 mph 11.0 mph 74 % 0.00 in 628 W/m2
12:05 64.4 °F 55.6 °F 29.70 in SW 5.0 mph 9.0 mph 73 % 0.00 in 628 W/m2
12:10 64.6 °F 55.0 °F 29.70 in SW 7.0 mph 13.0 mph 71 % 0.00 in 250 W/m2
12:15 64.0 °F 54.8 °F 29.70 in SW 8.0 mph 13.0 mph 72 % 0.00 in 257 W/m2
12:20 64.0 °F 54.8 °F 29.71 in SW 6.0 mph 13.0 mph 72 % 0.00 in 243 W/m2
12:25 64.2 °F 54.2 °F 29.71 in SW 8.0 mph 15.0 mph 70 % 0.00 in 970 W/m2
12:30 64.4 °F 54.0 °F 29.71 in SSW 9.0 mph 15.0 mph 69 % 0.00 in 1002 W/m2
12:35 64.8 °F 53.5 °F 29.71 in SW 8.0 mph 14.0 mph 67 % 0.00 in 1009 W/m2
12:40 64.9 °F 54.1 °F 29.71 in SW 8.0 mph 14.0 mph 68 % 0.00 in 997 W/m2
12:45 65.7 °F 54.8 °F 29.71 in SSW 7.0 mph 13.0 mph 68 % 0.00 in 993 W/m2
12:50 65.7 °F 53.6 °F 29.71 in SSW 7.0 mph 12.0 mph 65 % 0.00 in 227 W/m2
12:55 65.5 °F 53.4 °F 29.71 in SSW 7.0 mph 14.0 mph 65 % 0.00 in 995 W/m2
13:00 65.5 °F 53.0 °F 29.71 in SW 7.0 mph 14.0 mph 64 % 0.00 in 269 W/m2
13:03 65.5 °F 53.4 °F 29.71 in SW 8.0 mph 16.0 mph 65 % 0.00 in 990 W/m2
13:08 65.7 °F 53.1 °F 29.71 in SSW 9.0 mph 16.0 mph 64 % 0.00 in 995 W/m2
13:13 66.6 °F 53.6 °F 29.71 in South 8.0 mph 13.0 mph 63 % 0.00 in 1018 W/m2
13:18 66.4 °F 52.5 °F 29.71 in South 8.0 mph 13.0 mph 61 % 0.00 in 241 W/m2
13:23 66.0 °F 53.9 °F 29.71 in SSW 8.0 mph 14.0 mph 65 % 0.00 in 1099 W/m2
13:28 66.0 °F 53.5 °F 29.71 in SSW 8.0 mph 14.0 mph 64 % 0.00 in 939 W/m2
13:33 66.4 °F 53.0 °F 29.71 in SSW 7.0 mph 12.0 mph 62 % 0.00 in 1018 W/m2
13:38 66.6 °F 52.7 °F 29.71 in SW 5.0 mph 11.0 mph 61 % 0.00 in 1053 W/m2
13:44 66.9 °F 52.6 °F 29.71 in SSW 5.0 mph 9.0 mph 60 % 0.00 in 271 W/m2
13:49 67.6 °F 53.7 °F 29.71 in South 5.0 mph 10.0 mph 61 % 0.00 in 990 W/m2
13:54 68.0 °F 52.7 °F 29.71 in SSW 6.0 mph 11.0 mph 58 % 0.00 in 1000 W/m2
13:59 67.8 °F 52.5 °F 29.71 in South 7.0 mph 12.0 mph 58 % 0.00 in 998 W/m2
14:04 68.0 °F 52.7 °F 29.71 in SSE 7.0 mph 12.0 mph 58 % 0.00 in 863 W/m2
14:09 68.2 °F 53.3 °F 29.71 in South 6.0 mph 10.0 mph 59 % 0.00 in 979 W/m2
14:14 68.5 °F 52.2 °F 29.71 in SSW 6.0 mph 10.0 mph 56 % 0.00 in 290 W/m2
14:19 68.4 °F 52.0 °F 29.71 in SSW 5.0 mph 10.0 mph 56 % 0.00 in 499 W/m2
14:24 68.2 °F 51.4 °F 29.71 in South 5.0 mph 12.0 mph 55 % 0.00 in 396 W/m2
14:29 67.6 °F 51.4 °F 29.71 in SSW 6.0 mph 12.0 mph 56 % 0.00 in 339 W/m2
14:34 67.5 °F 52.2 °F 29.71 in SSW 6.0 mph 10.0 mph 58 % 0.00 in 1002 W/m2
14:39 67.8 °F 52.0 °F 29.71 in SSW 5.0 mph 9.0 mph 57 % 0.00 in 1025 W/m2
14:44 68.4 °F 51.6 °F 29.70 in SSW 4.0 mph 10.0 mph 55 % 0.00 in 715 W/m2
14:45 68.5 °F 52.2 °F 29.70 in SW 5.0 mph 10.0 mph 56 % 0.00 in 715 W/m2
14:50 68.2 °F 50.9 °F 29.71 in SW 5.0 mph 10.0 mph 54 % 0.00 in 369 W/m2
14:55 68.0 °F 51.7 °F 29.71 in SSW 4.0 mph 9.0 mph 56 % 0.00 in 369 W/m2
15:00 67.8 °F 51.5 °F 29.70 in SSW 5.0 mph 10.0 mph 56 % 0.00 in 251 W/m2
15:05 67.6 °F 52.3 °F 29.71 in SSW 6.0 mph 10.0 mph 58 % 0.00 in 237 W/m2
15:10 67.6 °F 52.3 °F 29.71 in SW 6.0 mph 9.0 mph 58 % 0.00 in 884 W/m2
15:15 67.6 °F 51.9 °F 29.70 in SW 5.0 mph 9.0 mph 57 % 0.00 in 301 W/m2
15:20 67.8 °F 52.5 °F 29.71 in SW 5.0 mph 8.0 mph 58 % 0.00 in 793 W/m2
15:25 68.2 °F 51.9 °F 29.71 in SSW 5.0 mph 8.0 mph 56 % 0.00 in 323 W/m2
15:30 68.2 °F 51.9 °F 29.71 in South 4.0 mph 8.0 mph 56 % 0.00 in 265 W/m2
15:35 68.4 °F 51.6 °F 29.71 in South 4.0 mph 7.0 mph 55 % 0.00 in 366 W/m2
15:40 68.4 °F 53.0 °F 29.71 in South 3.0 mph 7.0 mph 58 % 0.00 in 229 W/m2
15:45 68.4 °F 52.0 °F 29.71 in SSE 4.0 mph 7.0 mph 56 % 0.00 in 246 W/m2
15:50 68.4 °F 52.0 °F 29.71 in SSE 3.0 mph 6.0 mph 56 % 0.00 in 406 W/m2
15:55 68.4 °F 52.0 °F 29.71 in SE 3.0 mph 8.0 mph 56 % 0.00 in 283 W/m2
16:00 68.5 °F 51.7 °F 29.70 in SE 3.0 mph 8.0 mph 55 % 0.00 in 624 W/m2
16:05 68.7 °F 51.9 °F 29.71 in SE 3.0 mph 10.0 mph 55 % 0.00 in 209 W/m2
16:11 68.7 °F 51.9 °F 29.71 in SE 3.0 mph 10.0 mph 55 % 0.00 in 251 W/m2
16:16 68.7 °F 51.9 °F 29.71 in SE 1.0 mph 5.0 mph 55 % 0.00 in 281 W/m2
16:21 68.9 °F 51.1 °F 29.71 in SSE 2.0 mph 5.0 mph 53 % 0.00 in 308 W/m2
16:26 68.9 °F 50.5 °F 29.71 in SSE 3.0 mph 9.0 mph 52 % 0.00 in 299 W/m2
16:31 68.7 °F 50.9 °F 29.71 in SSE 4.0 mph 9.0 mph 53 % 0.00 in 292 W/m2
16:36 68.9 °F 51.6 °F 29.71 in SSE 4.0 mph 8.0 mph 54 % 0.00 in 223 W/m2
16:41 68.7 °F 50.9 °F 29.71 in SE 4.0 mph 7.0 mph 53 % 0.00 in 190 W/m2
16:46 68.7 °F 50.9 °F 29.71 in SE 4.0 mph 7.0 mph 53 % 0.00 in 176 W/m2
16:51 68.5 °F 51.7 °F 29.71 in SE 2.0 mph 6.0 mph 55 % 0.00 in 134 W/m2
16:56 68.5 °F 51.2 °F 29.71 in SE 2.0 mph 7.0 mph 54 % 0.00 in 135 W/m2
17:01 68.4 °F 51.1 °F 29.71 in SE 4.0 mph 7.0 mph 54 % 0.00 in 218 W/m2
17:06 68.4 °F 51.6 °F 29.70 in SE 4.0 mph 7.0 mph 55 % 0.00 in 287 W/m2
17:11 68.4 °F 51.1 °F 29.71 in SSE 3.0 mph 6.0 mph 54 % 0.00 in 163 W/m2
17:16 68.2 °F 50.4 °F 29.70 in SSE 3.0 mph 6.0 mph 53 % 0.00 in 193 W/m2
17:21 68.2 °F 50.9 °F 29.70 in SE 3.0 mph 6.0 mph 54 % 0.00 in 438 W/m2
17:26 68.5 °F 51.7 °F 29.70 in SE 4.0 mph 7.0 mph 55 % 0.00 in 599 W/m2
17:31 69.1 °F 50.7 °F 29.70 in SSE 3.0 mph 7.0 mph 52 % 0.00 in 547 W/m2
17:36 69.1 °F 51.7 °F 29.70 in SSE 3.0 mph 7.0 mph 54 % 0.00 in 169 W/m2
17:41 68.7 °F 49.3 °F 29.70 in SE 4.0 mph 8.0 mph 50 % 0.00 in 167 W/m2
17:46 68.5 °F 49.7 °F 29.70 in SE 4.0 mph 9.0 mph 51 % 0.00 in 125 W/m2
17:51 68.4 °F 50.6 °F 29.70 in SE 4.0 mph 9.0 mph 53 % 0.00 in 107 W/m2
17:56 68.2 °F 50.4 °F 29.70 in SSE 4.0 mph 8.0 mph 53 % 0.00 in 100 W/m2
18:01 67.8 °F 50.6 °F 29.70 in SSE 5.0 mph 9.0 mph 54 % 0.00 in 81 W/m2
18:06 67.1 °F 51.8 °F 29.71 in SSE 9.0 mph 23.0 mph 58 % 0.00 in 56 W/m2
18:11 65.7 °F 51.8 °F 29.71 in South 12.0 mph 23.0 mph 61 % 0.00 in 47 W/m2
18:16 64.8 °F 51.9 °F 29.72 in SSW 12.0 mph 22.0 mph 63 % 0.00 in 49 W/m2
18:21 64.0 °F 52.0 °F 29.71 in SSW 12.0 mph 20.0 mph 65 % 0.00 in 58 W/m2
18:26 63.3 °F 52.2 °F 29.72 in SSW 12.0 mph 20.0 mph 67 % 0.00 in 62 W/m2
18:31 63.0 °F 52.2 °F 29.72 in SSW 12.0 mph 23.0 mph 68 % 0.00 in 53 W/m2
18:36 62.8 °F 52.1 °F 29.72 in SSW 12.0 mph 23.0 mph 68 % 0.00 in 58 W/m2
18:41 62.2 °F 51.1 °F 29.72 in SSW 12.0 mph 21.0 mph 67 % 0.00 in 51 W/m2
18:46 62.1 °F 50.2 °F 29.72 in SSW 11.0 mph 19.0 mph 65 % 0.00 in 49 W/m2
18:51 62.1 °F 50.2 °F 29.72 in South 10.0 mph 19.0 mph 65 % 0.00 in 69 W/m2
18:56 61.9 °F 50.8 °F 29.72 in South 9.0 mph 19.0 mph 67 % 0.00 in 70 W/m2
19:01 61.3 °F 51.5 °F 29.73 in SSE 8.0 mph 16.0 mph 70 % 0.00 in 49 W/m2
19:07 61.0 °F 51.9 °F 29.73 in South 7.0 mph 14.0 mph 72 % 0.00 in 39 W/m2
19:12 60.3 °F 51.9 °F 29.73 in South 9.0 mph 15.0 mph 74 % 0.00 in 33 W/m2
19:17 59.5 °F 52.0 °F 29.74 in South 11.0 mph 19.0 mph 76 % 0.00 in 25 W/m2
19:22 59.2 °F 52.3 °F 29.74 in SSE 11.0 mph 19.0 mph 78 % 0.00 in 16 W/m2
19:27 58.8 °F 52.7 °F 29.75 in SSE 10.0 mph 19.0 mph 80 % 0.00 in 12 W/m2
19:32 58.5 °F 53.0 °F 29.75 in SSE 10.0 mph 20.0 mph 82 % 0.00 in 11 W/m2
19:37 58.1 °F 53.3 °F 29.75 in SSE 9.0 mph 20.0 mph 84 % 0.01 in 9 W/m2
19:42 57.7 °F 53.3 °F 29.76 in SE 9.0 mph 15.0 mph 85 % 0.01 in 7 W/m2
19:47 57.4 °F 53.5 °F 29.76 in SE 9.0 mph 16.0 mph 87 % 0.02 in 9 W/m2
19:52 57.0 °F 53.5 °F 29.76 in SE 9.0 mph 16.0 mph 88 % 0.05 in 11 W/m2
19:57 56.7 °F 53.5 °F 29.76 in SSE 9.0 mph 13.0 mph 89 % 0.09 in 9 W/m2
20:02 56.3 °F 53.4 °F 29.75 in SSE 8.0 mph 13.0 mph 90 % 0.10 in 9 W/m2
20:07 56.1 °F 53.5 °F 29.75 in South 6.0 mph 11.0 mph 91 % 0.10 in 9 W/m2
20:12 55.9 °F 53.6 °F 29.75 in SSW 5.0 mph 9.0 mph 92 % 0.11 in 16 W/m2
20:17 55.9 °F 53.6 °F 29.75 in SSW 5.0 mph 8.0 mph 92 % 0.12 in 21 W/m2
20:22 55.8 °F 53.5 °F 29.75 in SW 3.0 mph 8.0 mph 92 % 0.13 in 16 W/m2
20:27 55.8 °F 53.8 °F 29.76 in SW 1.0 mph 6.0 mph 93 % 0.13 in 9 W/m2
20:32 55.6 °F 53.3 °F 29.76 in Calm   2.0 mph 92 % 0.13 in 5 W/m2
20:37 55.6 °F 53.6 °F 29.76 in Calm   5.0 mph 93 % 0.13 in 0 W/m2
20:42 55.6 °F 53.6 °F 29.76 in Calm   5.0 mph 93 % 0.13 in 0 W/m2
20:47 55.4 °F 53.4 °F 29.76 in Calm   1.0 mph 93 % 0.13 in 0 W/m2
20:52 55.4 °F 53.4 °F 29.76 in Calm   2.0 mph 93 % 0.10 in 0 W/m2
20:57 55.4 °F 53.7 °F 29.76 in Calm   2.0 mph 94 % 0.07 in 0 W/m2
21:02 55.6 °F 53.9 °F 29.76 in Calm   1.0 mph 94 % 0.06 in 0 W/m2
21:07 55.6 °F 53.9 °F 29.76 in Calm     94 % 0.07 in 0 W/m2
21:12 55.6 °F 53.9 °F 29.76 in Calm   3.0 mph 94 % 0.06 in 0 W/m2
21:17 55.6 °F 53.9 °F 29.76 in SW 1.0 mph 4.0 mph 94 % 0.07 in 0 W/m2
21:22 55.6 °F 53.9 °F 29.76 in SW 1.0 mph 4.0 mph 94 % 0.07 in 0 W/m2
21:27 55.6 °F 53.9 °F 29.76 in Calm   2.0 mph 94 % 0.07 in 0 W/m2
21:32 55.6 °F 53.9 °F 29.76 in Calm   2.0 mph 94 % 0.07 in 0 W/m2
21:37 55.6 °F 53.9 °F 29.76 in SW 1.0 mph 4.0 mph 94 % 0.08 in 0 W/m2
21:42 55.6 °F 53.9 °F 29.76 in SW 1.0 mph 4.0 mph 94 % 0.07 in 0 W/m2
21:47 55.6 °F 53.9 °F 29.76 in Calm   4.0 mph 94 % 0.07 in 0 W/m2
21:52 55.4 °F 53.7 °F 29.76 in Calm   3.0 mph 94 % 0.07 in 0 W/m2
21:57 55.2 °F 53.5 °F 29.76 in Calm   1.0 mph 94 % 0.07 in 0 W/m2
22:02 55.2 °F 53.5 °F 29.77 in Calm   1.0 mph 94 % 0.06 in 0 W/m2
22:07 55.2 °F 53.5 °F 29.77 in Calm     94 % 0.06 in 0 W/m2
22:12 55.0 °F 53.6 °F 29.77 in Calm     95 % 0.05 in 0 W/m2
22:23 55.2 °F 53.8 °F 29.77 in Calm     95 % 0.03 in 0 W/m2
22:28 55.4 °F 54.0 °F 29.77 in Calm     95 % 0.02 in 0 W/m2
22:33 55.6 °F 54.2 °F 29.77 in Calm     95 % 0.02 in 0 W/m2
22:38 55.4 °F 54.0 °F 29.77 in Calm     95 % 0.02 in 0 W/m2
22:43 55.4 °F 54.0 °F 29.77 in Calm     95 % 0.02 in 0 W/m2
22:48 55.4 °F 54.0 °F 29.77 in Calm     95 % 0.01 in 0 W/m2
22:53 55.2 °F 53.8 °F 29.77 in Calm   2.0 mph 95 % 0.00 in 0 W/m2
22:57 55.0 °F 53.6 °F 29.77 in Calm   2.0 mph 95 % 0.00 in 0 W/m2
23:02 55.0 °F 53.6 °F 29.77 in Calm   2.0 mph 95 % 0.00 in 0 W/m2
23:07 54.9 °F 53.5 °F 29.78 in SE 1.0 mph 4.0 mph 95 % 0.00 in 0 W/m2
23:12 54.9 °F 53.5 °F 29.77 in Calm   4.0 mph 95 % 0.00 in 0 W/m2
23:17 54.9 °F 53.5 °F 29.78 in East 1.0 mph 5.0 mph 95 % 0.00 in 0 W/m2
23:22 54.9 °F 53.7 °F 29.77 in East 1.0 mph 5.0 mph 96 % 0.00 in 0 W/m2
23:27 55.0 °F 53.9 °F 29.78 in Calm   2.0 mph 96 % 0.00 in 0 W/m2
23:32 55.0 °F 53.9 °F 29.78 in Calm   3.0 mph 96 % 0.00 in 0 W/m2
23:37 55.2 °F 54.1 °F 29.77 in Calm   3.0 mph 96 % 0.00 in 0 W/m2
23:42 55.0 °F 53.6 °F 29.77 in Calm   4.0 mph 95 % 0.00 in 0 W/m2
23:47 54.7 °F 53.3 °F 29.78 in East 1.0 mph 4.0 mph 95 % 0.00 in 0 W/m2
23:52 54.7 °F 53.3 °F 29.78 in Calm   2.0 mph 95 % 0.00 in 0 W/m2
23:57 54.7 °F 53.6 °F 29.78 in Calm   3.0 mph 96 % 0.00 in 0 W/m2
Delerius-Weather
Compliments of Weather Underground - 2.25 mb

Data updates at regular intervals.